Wetterdaten: Sonntag, 10.09.2017
Datum Zeit Temp. A. Feuchte A. Luftdruck Regen Wind Richtung Richtung Sonnenschein Helligkeit Solar
10.09.2017 00:00 11,6 C 87 % 999,7 hPa 0,0 l/m 6,5 km/h (2 Bft) S 170 0 min 0 lux 0 W/m
10.09.2017 00:06 11,6 C 87 % 999,7 hPa 0,0 l/m 5,9 km/h (2 Bft) S 170 0 min 0 lux 0 W/m
10.09.2017 00:11 11,6 C 87 % 999,7 hPa 0,0 l/m 6,8 km/h (2 Bft) S-SO22.5 155 0 min 0 lux 0 W/m
10.09.2017 00:15 11,7 C 87 % 999,7 hPa 0,0 l/m 6,4 km/h (2 Bft) S-SO 150 0 min 0 lux 0 W/m
10.09.2017 00:21 11,7 C 87 % 999,7 hPa 0,0 l/m 6,8 km/h (2 Bft) SO22.5 145 0 min 0 lux 0 W/m
10.09.2017 00:26 11,7 C 87 % 999,7 hPa 0,0 l/m 5,4 km/h (2 Bft) SO22.5 145 0 min 0 lux 0 W/m
10.09.2017 00:31 11,7 C 87 % 999,7 hPa 0,0 l/m 6,5 km/h (2 Bft) SO 140 0 min 0 lux 0 W/m
10.09.2017 00:36 11,8 C 87 % 999,7 hPa 0,0 l/m 7,3 km/h (2 Bft) SO22.5 145 0 min 0 lux 0 W/m
10.09.2017 00:40 11,8 C 87 % 1000,7 hPa 0,0 l/m 8,8 km/h (2 Bft) S-SO22.5 150 0 min 0 lux 0 W/m
10.09.2017 00:46 11,8 C 87 % 1000,7 hPa 0,0 l/m 9,2 km/h (2 Bft) SO22.5 145 0 min 0 lux 0 W/m
10.09.2017 00:51 11,8 C 87 % 1000,7 hPa 0,0 l/m 7,9 km/h (2 Bft) S-SO22.5 150 0 min 0 lux 0 W/m
10.09.2017 00:56 11,9 C 87 % 1000,7 hPa 0,0 l/m 6,3 km/h (2 Bft) S-SO 150 0 min 0 lux 0 W/m
10.09.2017 01:01 11,9 C 87 % 1000,7 hPa 0,0 l/m 8,8 km/h (2 Bft) S-SO 160 0 min 0 lux 0 W/m
10.09.2017 01:06 12,0 C 87 % 1000,7 hPa 0,0 l/m 8,2 km/h (2 Bft) S-SO22.5 150 0 min 0 lux 0 W/m
10.09.2017 01:11 12,0 C 87 % 1000,7 hPa 0,0 l/m 8,1 km/h (2 Bft) S-SO22.5 160 0 min 0 lux 0 W/m
10.09.2017 01:16 12,0 C 87 % 1000,7 hPa 0,0 l/m 7,2 km/h (2 Bft) S-SO22.5 165 0 min 0 lux 0 W/m
10.09.2017 01:21 12,0 C 87 % 1000,7 hPa 0,0 l/m 7,2 km/h (2 Bft) S-SO22.5 165 0 min 0 lux 0 W/m
10.09.2017 01:25 12,0 C 87 % 1000,7 hPa 0,0 l/m 6,7 km/h (2 Bft) S22.5 170 0 min 0 lux 0 W/m
10.09.2017 01:31 12,0 C 87 % 1000,7 hPa 0,0 l/m 6,1 km/h (2 Bft) S-SO 160 0 min 0 lux 0 W/m
10.09.2017 01:36 12,0 C 87 % 1000,7 hPa 0,0 l/m 6,7 km/h (2 Bft) S-SO 160 0 min 0 lux 0 W/m
10.09.2017 01:41 11,9 C 87 % 1000,7 hPa 0,0 l/m 7,4 km/h (2 Bft) S-SO 160 0 min 0 lux 0 W/m
10.09.2017 01:46 11,9 C 87 % 1000,7 hPa 0,0 l/m 6,8 km/h (2 Bft) S-SO 160 0 min 0 lux 0 W/m
10.09.2017 01:50 11,8 C 87 % 1000,7 hPa 0,0 l/m 6,8 km/h (2 Bft) S-SO22.5 165 0 min 0 lux 0 W/m
10.09.2017 01:56 11,7 C 87 % 1000,7 hPa 0,0 l/m 6,3 km/h (2 Bft) S-SO 160 0 min 0 lux 0 W/m
10.09.2017 02:01 11,7 C 87 % 1000,7 hPa 0,0 l/m 6,7 km/h (2 Bft) S-SO22.5 155 0 min 0 lux 0 W/m
10.09.2017 02:06 11,6 C 87 % 1000,7 hPa 0,0 l/m 7,8 km/h (2 Bft) SO22.5 145 0 min 0 lux 0 W/m
10.09.2017 02:10 11,6 C 87 % 1000,7 hPa 0,0 l/m 7,9 km/h (2 Bft) S-SO 150 0 min 0 lux 0 W/m
10.09.2017 02:16 11,6 C 87 % 1000,7 hPa 0,0 l/m 7,9 km/h (2 Bft) S-SO 150 0 min 0 lux 0 W/m
10.09.2017 02:21 11,6 C 87 % 1000,7 hPa 0,0 l/m 4,9 km/h (1 Bft) S-SO 150 0 min 0 lux 0 W/m
10.09.2017 02:26 11,5 C 87 % 1000,7 hPa 0,0 l/m 6,4 km/h (2 Bft) S-SO 155 0 min 0 lux 0 W/m
10.09.2017 02:31 11,4 C 87 % 1000,7 hPa 0,0 l/m 6,7 km/h (2 Bft) S-SO 155 0 min 0 lux 0 W/m
10.09.2017 02:35 11,4 C 87 % 1000,7 hPa 0,0 l/m 7,0 km/h (2 Bft) S-SO 155 0 min 0 lux 0 W/m
10.09.2017 02:41 11,3 C 87 % 1000,7 hPa 0,0 l/m 7,9 km/h (2 Bft) S-SO 160 0 min 0 lux 0 W/m
10.09.2017 02:46 11,3 C 87 % 1000,7 hPa 0,0 l/m 7,9 km/h (2 Bft) S-SO 160 0 min 0 lux 0 W/m
10.09.2017 02:51 11,3 C 87 % 1000,7 hPa 0,0 l/m 8,0 km/h (2 Bft) S-SO22.5 155 0 min 0 lux 0 W/m
10.09.2017 02:56 11,2 C 87 % 1000,7 hPa 0,0 l/m 8,0 km/h (2 Bft) S-SO22.5 155 0 min 0 lux 0 W/m
10.09.2017 03:00 11,2 C 87 % 1000,7 hPa 0,0 l/m 4,5 km/h (1 Bft) S-SO 160 0 min 0 lux 0 W/m
10.09.2017 03:06 11,1 C 87 % 1000,7 hPa 0,0 l/m 4,5 km/h (1 Bft) S-SO 160 0 min 0 lux 0 W/m
10.09.2017 03:11 11,0 C 87 % 1000,7 hPa 0,0 l/m 4,5 km/h (1 Bft) S-SO 160 0 min 0 lux 0 W/m
10.09.2017 03:16 11,0 C 87 % 1000,7 hPa 0,0 l/m 4,5 km/h (1 Bft) S-SO 160 0 min 0 lux 0 W/m
10.09.2017 03:20 11,0 C 87 % 1000,7 hPa 0,0 l/m 7,9 km/h (2 Bft) S-SO 155 0 min 0 lux 0 W/m
10.09.2017 03:26 11,1 C 87 % 1000,7 hPa 0,0 l/m 7,9 km/h (2 Bft) S-SO 155 0 min 0 lux 0 W/m
10.09.2017 03:31 11,2 C 87 % 1000,7 hPa 0,0 l/m 7,9 km/h (2 Bft) S-SO 155 0 min 0 lux 0 W/m
10.09.2017 03:36 11,1 C 87 % 1000,7 hPa 0,0 l/m 7,9 km/h (2 Bft) S-SO 155 0 min 0 lux 0 W/m
10.09.2017 03:41 11,1 C 87 % 1000,7 hPa 0,0 l/m 7,9 km/h (2 Bft) S-SO 155 0 min 0 lux 0 W/m
10.09.2017 03:45 11,0 C 87 % 1000,7 hPa 0,0 l/m 4,4 km/h (1 Bft) SO22.5 135 0 min 0 lux 0 W/m
10.09.2017 03:51 10,8 C 87 % 1000,7 hPa 0,0 l/m 5,0 km/h (1 Bft) SO22.5 130 0 min 0 lux 0 W/m
10.09.2017 03:56 10,8 C 87 % 1000,7 hPa 0,0 l/m 6,5 km/h (2 Bft) SO22.5 130 0 min 0 lux 0 W/m
10.09.2017 04:01 10,7 C 87 % 1000,7 hPa 0,0 l/m 7,4 km/h (2 Bft) SO 130 0 min 0 lux 0 W/m
10.09.2017 04:05 10,7 C 87 % 1000,7 hPa 0,0 l/m 5,7 km/h (2 Bft) SO 125 0 min 0 lux 0 W/m
10.09.2017 04:11 10,7 C 87 % 1000,7 hPa 0,0 l/m 4,9 km/h (1 Bft) SO 130 0 min 0 lux 0 W/m
10.09.2017 04:16 10,6 C 88 % 1000,7 hPa 0,0 l/m 4,9 km/h (1 Bft) SO 130 0 min 0 lux 0 W/m
10.09.2017 04:21 10,6 C 88 % 1000,7 hPa 0,0 l/m 6,1 km/h (2 Bft) SO 135 0 min 0 lux 0 W/m
10.09.2017 04:26 10,6 C 88 % 1001,7 hPa 0,0 l/m 6,1 km/h (2 Bft) SO 135 0 min 0 lux 0 W/m
10.09.2017 04:30 10,6 C 88 % 1001,7 hPa 0,0 l/m 6,1 km/h (2 Bft) SO 135 0 min 0 lux 0 W/m
10.09.2017 04:36 10,6 C 88 % 1001,7 hPa 0,0 l/m 4,9 km/h (1 Bft) SO 135 0 min 0 lux 0 W/m
10.09.2017 04:41 10,6 C 88 % 1001,7 hPa 0,0 l/m 7,4 km/h (2 Bft) SO 140 0 min 0 lux 0 W/m
10.09.2017 04:46 10,6 C 88 % 1001,7 hPa 0,0 l/m 7,4 km/h (2 Bft) SO22.5 140 0 min 0 lux 0 W/m
10.09.2017 04:51 10,8 C 88 % 1001,7 hPa 0,0 l/m 7,4 km/h (2 Bft) SO22.5 140 0 min 0 lux 0 W/m
10.09.2017 04:55 10,7 C 88 % 1001,7 hPa 0,0 l/m 7,4 km/h (2 Bft) SO22.5 140 0 min 0 lux 0 W/m
10.09.2017 05:01 10,7 C 88 % 1001,7 hPa 0,0 l/m 6,8 km/h (2 Bft) S-SO22.5 150 0 min 0 lux 0 W/m
10.09.2017 05:06 10,6 C 88 % 1001,7 hPa 0,0 l/m 8,5 km/h (2 Bft) S-SO22.5 155 0 min 0 lux 0 W/m
10.09.2017 05:11 10,6 C 88 % 1001,7 hPa 0,0 l/m 7,9 km/h (2 Bft) S-SO22.5 150 0 min 0 lux 0 W/m
10.09.2017 05:15 10,6 C 88 % 1001,7 hPa 0,0 l/m 6,6 km/h (2 Bft) S-SO 155 0 min 0 lux 0 W/m
10.09.2017 05:21 10,6 C 88 % 1001,7 hPa 0,0 l/m 5,7 km/h (2 Bft) S-SO22.5 150 0 min 0 lux 0 W/m
10.09.2017 05:26 10,6 C 88 % 1001,7 hPa 0,0 l/m 5,7 km/h (2 Bft) S-SO22.5 150 0 min 0 lux 0 W/m
10.09.2017 05:31 10,5 C 88 % 1001,7 hPa 0,0 l/m 6,3 km/h (2 Bft) S-SO22.5 155 0 min 0 lux 0 W/m
10.09.2017 05:36 10,5 C 88 % 1001,7 hPa 0,0 l/m 5,9 km/h (2 Bft) S-SO 160 0 min 0 lux 0 W/m
10.09.2017 05:40 10,4 C 88 % 1001,7 hPa 0,0 l/m 5,9 km/h (2 Bft) S-SO 160 0 min 0 lux 0 W/m
10.09.2017 05:46 10,3 C 88 % 1001,7 hPa 0,0 l/m 5,9 km/h (2 Bft) S-SO 160 0 min 0 lux 0 W/m
10.09.2017 05:51 10,4 C 88 % 1001,7 hPa 0,0 l/m 6,3 km/h (2 Bft) SO22.5 130 0 min 0 lux 0 W/m
10.09.2017 05:56 10,3 C 88 % 1001,7 hPa 0,0 l/m 6,1 km/h (2 Bft) O-SO22.5 115 0 min 0 lux 0 W/m
10.09.2017 06:01 10,3 C 88 % 1001,7 hPa 0,0 l/m 6,1 km/h (2 Bft) O-SO22.5 115 0 min 0 lux 0 W/m
10.09.2017 06:06 10,3 C 88 % 1001,7 hPa 0,0 l/m 4,9 km/h (1 Bft) S-SO 150 0 min 0 lux 0 W/m
10.09.2017 06:11 10,4 C 88 % 1001,7 hPa 0,0 l/m 4,9 km/h (1 Bft) S-SO 150 0 min 0 lux 0 W/m
10.09.2017 06:16 10,4 C 88 % 1001,7 hPa 0,0 l/m 15,0 km/h (3 Bft) S-SO22.5 155 0 min 0 lux 0 W/m
10.09.2017 06:21 10,4 C 88 % 1001,7 hPa 0,0 l/m 9,8 km/h (2 Bft) S-SO22.5 165 0 min 0 lux 0 W/m
10.09.2017 06:25 10,4 C 88 % 1001,7 hPa 0,0 l/m 9,3 km/h (2 Bft) S-SO22.5 160 0 min 0 lux 0 W/m
10.09.2017 06:31 10,3 C 88 % 1001,7 hPa 0,0 l/m 9,1 km/h (2 Bft) S-SO 160 0 min 0 lux 0 W/m
10.09.2017 06:36 10,3 C 88 % 1001,7 hPa 0,0 l/m 8,3 km/h (2 Bft) S-SO22.5 160 0 min 0 lux 0 W/m
10.09.2017 06:41 10,3 C 88 % 1001,7 hPa 0,0 l/m 6,9 km/h (2 Bft) S-SO22.5 160 0 min 27 lux 0 W/m
10.09.2017 06:46 10,2 C 88 % 1001,7 hPa 0,0 l/m 6,7 km/h (2 Bft) S 170 0 min 61 lux 0 W/m
10.09.2017 06:50 10,2 C 88 % 1001,7 hPa 0,0 l/m 5,4 km/h (2 Bft) SO22.5 135 0 min 126 lux 0 W/m
10.09.2017 06:56 10,2 C 88 % 1001,7 hPa 0,0 l/m 7,6 km/h (2 Bft) S-SO22.5 155 0 min 126 lux 0 W/m
10.09.2017 07:01 10,2 C 88 % 1001,7 hPa 0,0 l/m 9,2 km/h (2 Bft) S-SO22.5 165 0 min 297 lux 0 W/m
10.09.2017 07:06 10,2 C 88 % 1001,7 hPa 0,0 l/m 9,0 km/h (2 Bft) S-SO22.5 160 0 min 297 lux 2 W/m
10.09.2017 07:10 10,2 C 88 % 1001,7 hPa 0,0 l/m 10,1 km/h (2 Bft) S-SO22.5 160 0 min 297 lux 2 W/m
10.09.2017 07:16 10,2 C 88 % 1001,7 hPa 0,0 l/m 9,8 km/h (2 Bft) S-SO22.5 165 0 min 888 lux 6 W/m
10.09.2017 07:21 10,3 C 88 % 1001,7 hPa 0,0 l/m 10,1 km/h (2 Bft) S-SO22.5 160 0 min 1,43 klux 10 W/m
10.09.2017 07:26 10,3 C 88 % 1002,7 hPa 0,0 l/m 9,3 km/h (2 Bft) S-SO22.5 160 0 min 1,90 klux 13 W/m
10.09.2017 07:31 10,3 C 88 % 1002,7 hPa 0,0 l/m 9,3 km/h (2 Bft) S-SO22.5 160 0 min 2,27 klux 16 W/m
10.09.2017 07:35 10,4 C 88 % 1002,7 hPa 0,0 l/m 9,3 km/h (2 Bft) S-SO22.5 160 0 min 2,58 klux 18 W/m
10.09.2017 07:41 10,4 C 88 % 1002,7 hPa 0,0 l/m 9,3 km/h (2 Bft) S-SO22.5 160 0 min 2,82 klux 19 W/m
10.09.2017 07:46 10,4 C 88 % 1002,7 hPa 0,0 l/m 12,0 km/h (2 Bft) S-SO22.5 160 0 min 3,13 klux 21 W/m
10.09.2017 07:51 10,5 C 88 % 1002,7 hPa 0,0 l/m 13,5 km/h (3 Bft) S-SO22.5 155 0 min 3,42 klux 23 W/m
10.09.2017 07:56 10,6 C 88 % 1002,7 hPa 0,0 l/m 14,4 km/h (3 Bft) S-SO22.5 165 0 min 3,72 klux 25 W/m
10.09.2017 08:00 10,6 C 88 % 1002,7 hPa 0,0 l/m 13,0 km/h (3 Bft) S22.5 170 0 min 4,05 klux 28 W/m
10.09.2017 08:06 10,8 C 88 % 1002,7 hPa 0,0 l/m 11,1 km/h (2 Bft) S22.5 170 0 min 5,55 klux 38 W/m
10.09.2017 08:11 10,8 C 88 % 1002,7 hPa 0,0 l/m 13,9 km/h (3 Bft) S-SO22.5 165 0 min 4,54 klux 31 W/m
10.09.2017 08:15 10,9 C 88 % 1002,7 hPa 0,0 l/m 9,6 km/h (2 Bft) S45 175 0 min 4,95 klux 34 W/m
10.09.2017 08:20 11,0 C 88 % 1002,7 hPa 0,0 l/m 15,8 km/h (3 Bft) S-SO22.5 155 0 min 5,20 klux 36 W/m
10.09.2017 08:26 11,1 C 88 % 1002,7 hPa 0,0 l/m 18,9 km/h (3 Bft) S22.5 170 0 min 5,43 klux 37 W/m
10.09.2017 08:31 11,3 C 88 % 1002,7 hPa 0,0 l/m 14,8 km/h (3 Bft) S-SO22.5 155 0 min 5,77 klux 39 W/m
10.09.2017 08:36 11,4 C 88 % 1002,7 hPa 0,0 l/m 13,9 km/h (3 Bft) S-SO22.5 165 0 min 13,7 klux 94 W/m
10.09.2017 08:40 11,7 C 88 % 1002,7 hPa 0,0 l/m 13,6 km/h (3 Bft) S22.5 175 4 min 23,0 klux 157 W/m
10.09.2017 08:45 11,9 C 88 % 1002,7 hPa 0,0 l/m 18,7 km/h (3 Bft) S45 175 5 min 25,6 klux 175 W/m
10.09.2017 08:51 12,2 C 87 % 1002,7 hPa 0,0 l/m 14,1 km/h (3 Bft) S45 180 6 min 26,9 klux 184 W/m
10.09.2017 08:56 12,4 C 87 % 1002,7 hPa 0,0 l/m 14,2 km/h (3 Bft) S22.5 175 5 min 28,1 klux 192 W/m
10.09.2017 09:01 12,5 C 86 % 1002,7 hPa 0,0 l/m 16,3 km/h (3 Bft) S22.5 180 5 min 29,2 klux 200 W/m
10.09.2017 09:06 12,7 C 86 % 1002,7 hPa 0,0 l/m 15,6 km/h (3 Bft) S22.5 175 5 min 30,1 klux 206 W/m
10.09.2017 09:11 12,9 C 86 % 1002,7 hPa 0,0 l/m 15,1 km/h (3 Bft) S22.5 185 5 min 31,2 klux 213 W/m
10.09.2017 09:16 13,0 C 86 % 1002,7 hPa 0,0 l/m 19,0 km/h (3 Bft) S22.5 175 5 min 32,7 klux 224 W/m
10.09.2017 09:21 13,2 C 86 % 1002,7 hPa 0,0 l/m 14,3 km/h (3 Bft) S22.5 175 5 min 34,3 klux 235 W/m
10.09.2017 09:25 13,3 C 85 % 1002,7 hPa 0,0 l/m 14,3 km/h (3 Bft) S22.5 190 4 min 34,7 klux 237 W/m
10.09.2017 09:31 13,5 C 85 % 1002,7 hPa 0,0 l/m 12,9 km/h (3 Bft) S-SW45 195 6 min 36,7 klux 251 W/m
10.09.2017 09:36 13,7 C 85 % 1002,7 hPa 0,0 l/m 16,6 km/h (3 Bft) S45 190 5 min 37,0 klux 253 W/m
10.09.2017 09:41 13,8 C 84 % 1002,7 hPa 0,0 l/m 16,6 km/h (3 Bft) S45 190 5 min 38,4 klux 263 W/m
10.09.2017 09:46 13,9 C 83 % 1002,7 hPa 0,0 l/m 15,0 km/h (3 Bft) S-SW45 205 5 min 39,5 klux 270 W/m
10.09.2017 09:50 14,0 C 82 % 1002,7 hPa 0,0 l/m 16,7 km/h (3 Bft) S45 180 4 min 40,6 klux 278 W/m
10.09.2017 09:55 14,2 C 83 % 1002,7 hPa 0,0 l/m 13,5 km/h (3 Bft) S45 190 5 min 41,6 klux 285 W/m
10.09.2017 10:01 14,3 C 81 % 1002,7 hPa 0,0 l/m 20,0 km/h (4 Bft) S45 185 6 min 42,7 klux 292 W/m
10.09.2017 10:06 14,5 C 80 % 1002,7 hPa 0,0 l/m 12,6 km/h (3 Bft) S45 185 5 min 44,0 klux 301 W/m
10.09.2017 10:10 14,7 C 80 % 1002,7 hPa 0,0 l/m 16,1 km/h (3 Bft) S22.5 180 4 min 44,4 klux 304 W/m
10.09.2017 10:16 14,9 C 80 % 1002,7 hPa 0,0 l/m 17,4 km/h (3 Bft) S22.5 180 6 min 45,5 klux 311 W/m
10.09.2017 10:21 15,0 C 78 % 1002,7 hPa 0,0 l/m 20,5 km/h (4 Bft) S45 190 5 min 47,3 klux 324 W/m
10.09.2017 10:26 15,4 C 78 % 1002,7 hPa 0,0 l/m 16,9 km/h (3 Bft) S-SW22.5 210 5 min 47,9 klux 328 W/m
10.09.2017 10:31 15,6 C 78 % 1002,7 hPa 0,0 l/m 12,3 km/h (2 Bft) S-SW45 200 5 min 48,4 klux 331 W/m
10.09.2017 10:35 15,7 C 76 % 1002,7 hPa 0,0 l/m 15,1 km/h (3 Bft) S-SW45 210 4 min 49,4 klux 338 W/m
10.09.2017 10:41 16,0 C 76 % 1002,7 hPa 0,0 l/m 16,3 km/h (3 Bft) S-SW45 210 6 min 50,9 klux 348 W/m
10.09.2017 10:46 16,0 C 76 % 1002,7 hPa 0,0 l/m 18,6 km/h (3 Bft) S45 185 5 min 53,6 klux 367 W/m
10.09.2017 10:51 16,4 C 74 % 1002,7 hPa 0,0 l/m 17,2 km/h (3 Bft) S22.5 180 5 min 60,4 klux 413 W/m
10.09.2017 10:56 16,4 C 73 % 1002,7 hPa 0,0 l/m 15,1 km/h (3 Bft) S45 180 5 min 66,8 klux 457 W/m
10.09.2017 11:01 16,4 C 72 % 1002,7 hPa 0,0 l/m 20,6 km/h (4 Bft) S-SW22.5 200 0 min 17,8 klux 122 W/m
10.09.2017 11:06 16,4 C 73 % 1002,7 hPa 0,0 l/m 14,6 km/h (3 Bft) S45 180 0 min 17,8 klux 122 W/m
10.09.2017 11:11 16,2 C 72 % 1002,7 hPa 0,0 l/m 21,1 km/h (4 Bft) S-SW45 200 0 min 14,3 klux 98 W/m
10.09.2017 11:15 16,3 C 73 % 1002,7 hPa 0,0 l/m 13,1 km/h (3 Bft) S-SW22.5 200 0 min 13,3 klux 91 W/m
10.09.2017 11:21 16,0 C 73 % 1002,7 hPa 0,0 l/m 15,9 km/h (3 Bft) S-SW22.5 200 0 min 11,8 klux 81 W/m
10.09.2017 11:26 16,2 C 74 % 1002,7 hPa 0,0 l/m 14,9 km/h (3 Bft) S-SW22.5 210 0 min 40,3 klux 276 W/m
10.09.2017 11:31 16,1 C 71 % 1002,7 hPa 0,0 l/m 28,6 km/h (5 Bft) SW45 220 0 min 17,5 klux 120 W/m
10.09.2017 11:35 16,0 C 71 % 1002,7 hPa 0,0 l/m 19,5 km/h (3 Bft) S-SW22.5 210 4 min 68,5 klux 469 W/m
10.09.2017 11:40 16,6 C 70 % 1002,7 hPa 0,0 l/m 17,8 km/h (3 Bft) S45 185 0 min 37,5 klux 257 W/m
10.09.2017 11:46 16,6 C 70 % 1002,7 hPa 0,0 l/m 24,3 km/h (4 Bft) SW45 225 6 min 67,4 klux 461 W/m
10.09.2017 11:51 16,7 C 70 % 1002,7 hPa 0,0 l/m 25,0 km/h (4 Bft) SW45 215 5 min 70,3 klux 481 W/m
10.09.2017 11:56 17,0 C 68 % 1002,7 hPa 0,0 l/m 17,6 km/h (3 Bft) S-SW22.5 195 0 min 24,0 klux 164 W/m
10.09.2017 12:00 16,9 C 67 % 1002,7 hPa 0,0 l/m 23,7 km/h (4 Bft) S-SW45 195 0 min 16,4 klux 112 W/m
10.09.2017 12:06 16,9 C 67 % 1002,7 hPa 0,0 l/m 23,7 km/h (4 Bft) S-SW45 195 0 min 16,4 klux 112 W/m
10.09.2017 12:11 16,5 C 68 % 1002,7 hPa 0,0 l/m 27,1 km/h (5 Bft) SW22.5 230 0 min 34,3 klux 235 W/m
10.09.2017 12:15 16,8 C 70 % 1002,7 hPa 0,0 l/m 25,5 km/h (4 Bft) SW22.5 230 4 min 76,1 klux 521 W/m
10.09.2017 12:21 17,6 C 67 % 1002,6 hPa 0,0 l/m 30,4 km/h (5 Bft) S-SW45 205 6 min 73,1 klux 500 W/m
10.09.2017 12:26 17,6 C 65 % 1002,6 hPa 0,0 l/m 28,1 km/h (5 Bft) SW22.5 215 5 min 74,8 klux 512 W/m
10.09.2017 12:31 17,9 C 64 % 1002,6 hPa 0,0 l/m 33,9 km/h (5 Bft) SW45 215 5 min 78,2 klux 535 W/m
10.09.2017 12:36 18,2 C 64 % 1002,6 hPa 0,0 l/m 30,8 km/h (5 Bft) S-SW45 210 5 min 77,1 klux 527 W/m
10.09.2017 12:40 18,4 C 64 % 1002,6 hPa 0,0 l/m 28,3 km/h (5 Bft) S-SW22.5 195 4 min 80,9 klux 553 W/m
10.09.2017 12:46 18,4 C 65 % 1002,6 hPa 0,0 l/m 34,3 km/h (5 Bft) SW45 230 6 min 81,8 klux 560 W/m
10.09.2017 12:51 18,3 C 64 % 1002,6 hPa 0,0 l/m 31,7 km/h (5 Bft) SW45 230 5 min 84,7 klux 579 W/m
10.09.2017 12:56 18,1 C 63 % 1002,6 hPa 0,0 l/m 29,8 km/h (5 Bft) SW22.5 230 5 min 80,9 klux 553 W/m
10.09.2017 13:00 18,4 C 64 % 1002,6 hPa 0,0 l/m 32,6 km/h (5 Bft) SW45 220 4 min 78,8 klux 539 W/m
10.09.2017 13:06 18,1 C 63 % 1002,6 hPa 0,0 l/m 29,5 km/h (5 Bft) SW22.5 220 6 min 64,8 klux 443 W/m
10.09.2017 13:11 17,9 C 65 % 1002,6 hPa 0,0 l/m 31,8 km/h (5 Bft) SW45 230 0 min 18,2 klux 124 W/m
10.09.2017 13:16 17,3 C 65 % 1002,6 hPa 0,0 l/m 33,4 km/h (5 Bft) SW45 225 0 min 16,8 klux 115 W/m
10.09.2017 13:20 17,2 C 65 % 1002,7 hPa 0,0 l/m 27,7 km/h (5 Bft) SW45 225 0 min 35,7 klux 244 W/m
10.09.2017 13:26 17,0 C 67 % 1002,7 hPa 0,0 l/m 31,3 km/h (5 Bft) SW45 235 0 min 16,1 klux 110 W/m
10.09.2017 13:31 16,9 C 66 % 1002,7 hPa 0,0 l/m 28,6 km/h (5 Bft) SW45 235 5 min 73,3 klux 501 W/m
10.09.2017 13:36 17,0 C 68 % 1002,7 hPa 0,0 l/m 26,9 km/h (4 Bft) SW45 235 0 min 17,3 klux 118 W/m
10.09.2017 13:41 16,8 C 67 % 1002,7 hPa 0,0 l/m 32,4 km/h (5 Bft) SW45 235 0 min 17,5 klux 120 W/m
10.09.2017 13:45 16,8 C 67 % 1002,7 hPa 0,0 l/m 29,0 km/h (5 Bft) W-SW67.5 240 0 min 20,5 klux 140 W/m
10.09.2017 13:51 16,9 C 66 % 1002,7 hPa 0,0 l/m 31,2 km/h (5 Bft) SW22.5 230 6 min 81,4 klux 557 W/m
10.09.2017 13:56 17,5 C 68 % 1002,6 hPa 0,0 l/m 22,8 km/h (4 Bft) SW22.5 235 5 min 77,0 klux 527 W/m
10.09.2017 14:01 17,8 C 67 % 1002,6 hPa 0,0 l/m 33,2 km/h (5 Bft) SW45 230 5 min 78,8 klux 539 W/m
10.09.2017 14:06 18,3 C 64 % 1002,6 hPa 0,0 l/m 27,4 km/h (5 Bft) SW45 215 5 min 81,9 klux 560 W/m
10.09.2017 14:11 18,2 C 63 % 1002,6 hPa 0,0 l/m 27,3 km/h (5 Bft) S-SW22.5 210 0 min 23,9 klux 163 W/m
10.09.2017 14:16 18,0 C 65 % 1002,6 hPa 0,0 l/m 28,0 km/h (5 Bft) SW45 225 5 min 71,8 klux 491 W/m
10.09.2017 14:21 18,0 C 65 % 1001,6 hPa 0,0 l/m 32,5 km/h (5 Bft) W-SW45 240 5 min 63,7 klux 436 W/m
10.09.2017 14:25 17,8 C 66 % 1001,6 hPa 0,0 l/m 30,8 km/h (5 Bft) SW45 235 4 min 78,1 klux 534 W/m
10.09.2017 14:31 18,0 C 66 % 1001,6 hPa 0,0 l/m 22,7 km/h (4 Bft) SW45 230 0 min 21,8 klux 149 W/m
10.09.2017 14:36 18,3 C 66 % 1001,6 hPa 0,0 l/m 30,2 km/h (5 Bft) W-SW45 240 5 min 58,3 klux 399 W/m
10.09.2017 14:41 17,9 C 63 % 1001,6 hPa 0,0 l/m 29,1 km/h (5 Bft) SW45 230 0 min 18,3 klux 125 W/m
10.09.2017 14:46 18,0 C 65 % 1001,6 hPa 0,0 l/m 23,7 km/h (4 Bft) SW45 225 5 min 71,0 klux 486 W/m
10.09.2017 14:50 18,2 C 64 % 1001,6 hPa 0,0 l/m 27,9 km/h (5 Bft) SW45 225 0 min 27,7 klux 189 W/m
10.09.2017 14:56 18,8 C 64 % 1001,6 hPa 0,0 l/m 23,3 km/h (4 Bft) SW22.5 215 6 min 72,5 klux 496 W/m
10.09.2017 15:01 18,8 C 62 % 1001,6 hPa 0,0 l/m 41,2 km/h (6 Bft) SW45 230 5 min 73,3 klux 501 W/m
10.09.2017 15:05 18,5 C 62 % 1001,6 hPa 0,0 l/m 34,2 km/h (5 Bft) SW45 230 4 min 69,6 klux 476 W/m
10.09.2017 15:11 18,6 C 63 % 1001,6 hPa 0,0 l/m 36,5 km/h (5 Bft) SW45 225 0 min 27,2 klux 186 W/m
10.09.2017 15:16 18,7 C 64 % 1001,6 hPa 0,0 l/m 30,6 km/h (5 Bft) SW67.5 235 5 min 68,2 klux 466 W/m
10.09.2017 15:21 19,0 C 62 % 1001,6 hPa 0,0 l/m 34,0 km/h (5 Bft) SW45 225 5 min 68,5 klux 469 W/m
10.09.2017 15:26 19,0 C 61 % 1001,6 hPa 0,0 l/m 33,0 km/h (5 Bft) SW45 215 0 min 22,6 klux 155 W/m
10.09.2017 15:30 18,4 C 61 % 1001,6 hPa 0,0 l/m 26,1 km/h (4 Bft) S-SW45 210 0 min 17,0 klux 116 W/m
10.09.2017 15:36 18,3 C 62 % 1001,6 hPa 0,0 l/m 27,0 km/h (5 Bft) SW22.5 215 0 min 32,6 klux 223 W/m
10.09.2017 15:41 18,1 C 63 % 1001,6 hPa 0,0 l/m 30,1 km/h (5 Bft) W-SW45 240 0 min 17,5 klux 120 W/m
10.09.2017 15:46 17,9 C 65 % 1001,6 hPa 0,0 l/m 27,1 km/h (5 Bft) SW45 230 0 min 16,4 klux 112 W/m
10.09.2017 15:50 18,0 C 64 % 1001,6 hPa 0,0 l/m 30,2 km/h (5 Bft) SW45 235 0 min 15,5 klux 106 W/m
10.09.2017 15:56 18,4 C 64 % 1001,6 hPa 0,0 l/m 25,3 km/h (4 Bft) SW45 225 6 min 69,2 klux 473 W/m
10.09.2017 16:01 18,5 C 61 % 1001,6 hPa 0,0 l/m 27,2 km/h (5 Bft) SW45 230 0 min 17,0 klux 116 W/m
10.09.2017 16:05 18,4 C 61 % 1001,6 hPa 0,0 l/m 32,6 km/h (5 Bft) SW22.5 225 4 min 48,8 klux 334 W/m
10.09.2017 16:11 18,7 C 62 % 1001,6 hPa 0,0 l/m 30,0 km/h (5 Bft) SW45 220 6 min 60,0 klux 410 W/m
10.09.2017 16:16 19,0 C 60 % 1001,6 hPa 0,0 l/m 28,6 km/h (5 Bft) SW45 215 5 min 43,2 klux 295 W/m
10.09.2017 16:21 18,8 C 60 % 1001,6 hPa 0,0 l/m 30,1 km/h (5 Bft) SW22.5 220 0 min 22,5 klux 154 W/m
10.09.2017 16:26 18,7 C 61 % 1001,6 hPa 0,0 l/m 32,3 km/h (5 Bft) SW45 230 0 min 31,4 klux 215 W/m
10.09.2017 16:30 18,6 C 61 % 1001,6 hPa 0,0 l/m 29,0 km/h (5 Bft) SW22.5 215 0 min 21,4 klux 146 W/m
10.09.2017 16:36 18,4 C 61 % 1001,6 hPa 0,0 l/m 39,4 km/h (6 Bft) SW22.5 230 0 min 30,4 klux 208 W/m
10.09.2017 16:41 18,3 C 61 % 1001,6 hPa 0,0 l/m 33,1 km/h (5 Bft) SW67.5 230 0 min 18,9 klux 129 W/m
10.09.2017 16:46 18,1 C 61 % 1001,6 hPa 0,0 l/m 33,6 km/h (5 Bft) SW45 225 0 min 14,4 klux 98 W/m
10.09.2017 16:51 17,9 C 63 % 1001,6 hPa 0,0 l/m 37,7 km/h (5 Bft) SW45 225 0 min 12,3 klux 84 W/m
10.09.2017 16:55 17,9 C 61 % 1001,6 hPa 0,0 l/m 33,3 km/h (5 Bft) SW45 220 0 min 12,3 klux 84 W/m
10.09.2017 17:01 18,0 C 62 % 1001,6 hPa 0,0 l/m 34,4 km/h (5 Bft) SW45 225 0 min 21,6 klux 148 W/m
10.09.2017 17:06 18,2 C 63 % 1001,6 hPa 0,0 l/m 28,7 km/h (5 Bft) SW45 220 0 min 17,7 klux 121 W/m
10.09.2017 17:10 18,1 C 64 % 1001,6 hPa 0,0 l/m 26,3 km/h (4 Bft) SW45 230 0 min 13,3 klux 91 W/m
10.09.2017 17:16 18,0 C 64 % 1001,6 hPa 0,0 l/m 24,8 km/h (4 Bft) SW45 230 0 min 17,1 klux 117 W/m
10.09.2017 17:21 18,0 C 64 % 1001,6 hPa 0,0 l/m 28,4 km/h (5 Bft) SW22.5 230 0 min 14,6 klux 100 W/m
10.09.2017 17:26 17,9 C 63 % 1001,6 hPa 0,0 l/m 27,6 km/h (5 Bft) SW22.5 225 0 min 14,8 klux 101 W/m
10.09.2017 17:30 17,8 C 65 % 1001,6 hPa 0,0 l/m 29,8 km/h (5 Bft) SW45 225 0 min 10,3 klux 70 W/m
10.09.2017 17:36 17,8 C 64 % 1001,6 hPa 0,0 l/m 23,1 km/h (4 Bft) SW22.5 220 0 min 13,3 klux 91 W/m
10.09.2017 17:41 17,8 C 64 % 1001,6 hPa 0,0 l/m 32,4 km/h (5 Bft) SW45 225 0 min 9,1 klux 62 W/m
10.09.2017 17:46 17,6 C 63 % 1001,6 hPa 0,0 l/m 35,0 km/h (5 Bft) SW45 220 0 min 7,97 klux 55 W/m
10.09.2017 17:51 17,6 C 63 % 1001,6 hPa 0,0 l/m 34,7 km/h (5 Bft) SW45 230 0 min 7,97 klux 55 W/m
10.09.2017 17:55 17,7 C 63 % 1000,6 hPa 0,0 l/m 29,0 km/h (5 Bft) SW45 225 0 min 7,97 klux 55 W/m
10.09.2017 18:01 17,8 C 62 % 1000,6 hPa 0,0 l/m 36,2 km/h (5 Bft) SW45 215 0 min 7,97 klux 55 W/m
10.09.2017 18:06 17,8 C 61 % 1000,6 hPa 0,0 l/m 33,1 km/h (5 Bft) SW22.5 215 0 min 10,2 klux 70 W/m
10.09.2017 18:10 17,6 C 62 % 1000,6 hPa 0,0 l/m 30,7 km/h (5 Bft) S-SW45 210 0 min 6,74 klux 46 W/m
10.09.2017 18:16 17,4 C 63 % 1000,6 hPa 0,0 l/m 31,0 km/h (5 Bft) SW45 225 0 min 6,00 klux 41 W/m
10.09.2017 18:21 17,2 C 63 % 1000,6 hPa 0,0 l/m 35,5 km/h (5 Bft) SW45 220 0 min 6,74 klux 46 W/m
10.09.2017 18:26 17,2 C 62 % 1000,6 hPa 0,0 l/m 30,1 km/h (5 Bft) SW22.5 215 0 min 7,46 klux 51 W/m
10.09.2017 18:31 17,1 C 64 % 1000,6 hPa 0,0 l/m 26,5 km/h (4 Bft) SW45 220 0 min 7,17 klux 49 W/m
10.09.2017 18:35 16,8 C 64 % 1000,6 hPa 0,0 l/m 34,0 km/h (5 Bft) SW45 225 0 min 7,39 klux 51 W/m
10.09.2017 18:41 16,8 C 63 % 1000,6 hPa 0,0 l/m 32,0 km/h (5 Bft) SW45 220 0 min 7,54 klux 52 W/m
10.09.2017 18:46 16,8 C 65 % 1000,6 hPa 0,0 l/m 25,9 km/h (4 Bft) SW22.5 220 0 min 6,80 klux 47 W/m
10.09.2017 18:51 16,6 C 65 % 1000,7 hPa 0,0 l/m 29,3 km/h (5 Bft) SW45 235 0 min 6,80 klux 47 W/m
10.09.2017 18:55 16,6 C 66 % 1000,7 hPa 0,0 l/m 30,0 km/h (5 Bft) S-SW45 200 0 min 6,18 klux 42 W/m
10.09.2017 19:01 16,4 C 64 % 1000,7 hPa 0,0 l/m 28,7 km/h (5 Bft) SW45 215 0 min 5,01 klux 34 W/m
10.09.2017 19:06 16,3 C 63 % 1000,7 hPa 0,0 l/m 26,6 km/h (4 Bft) SW22.5 215 0 min 4,10 klux 28 W/m
10.09.2017 19:10 16,2 C 63 % 1000,7 hPa 0,0 l/m 33,1 km/h (5 Bft) SW45 215 0 min 3,54 klux 24 W/m
10.09.2017 19:16 16,2 C 63 % 1000,7 hPa 0,0 l/m 34,3 km/h (5 Bft) S-SW45 210 0 min 3,37 klux 23 W/m
10.09.2017 19:21 16,1 C 63 % 1000,7 hPa 0,0 l/m 26,8 km/h (4 Bft) S-SW45 200 0 min 2,68 klux 18 W/m
10.09.2017 19:26 16,0 C 64 % 1000,7 hPa 0,0 l/m 29,5 km/h (5 Bft) S-SW45 205 0 min 2,48 klux 17 W/m
10.09.2017 19:31 16,0 C 64 % 1000,7 hPa 0,0 l/m 25,4 km/h (4 Bft) S-SW67.5 205 0 min 2,19 klux 15 W/m
10.09.2017 19:35 15,8 C 65 % 1000,7 hPa 0,0 l/m 25,8 km/h (4 Bft) S-SW45 210 0 min 1,76 klux 12 W/m
10.09.2017 19:41 15,7 C 65 % 1000,7 hPa 0,0 l/m 27,5 km/h (5 Bft) SW22.5 225 0 min 1,40 klux 10 W/m
10.09.2017 19:46 15,6 C 65 % 1000,7 hPa 0,0 l/m 24,5 km/h (4 Bft) S-SW22.5 205 0 min 1,07 klux 7 W/m
10.09.2017 19:51 15,6 C 66 % 999,7 hPa 0,0 l/m 20,6 km/h (4 Bft) S45 185 0 min 715 lux 5 W/m
10.09.2017 19:56 15,6 C 66 % 999,7 hPa 0,0 l/m 25,8 km/h (4 Bft) S22.5 185 0 min 413 lux 0 W/m
10.09.2017 20:00 15,6 C 66 % 999,7 hPa 0,0 l/m 22,4 km/h (4 Bft) S45 185 0 min 240 lux 0 W/m
10.09.2017 20:06 15,4 C 67 % 999,7 hPa 0,0 l/m 20,0 km/h (4 Bft) S-SW22.5 195 0 min 148 lux 0 W/m
10.09.2017 20:10 15,4 C 68 % 999,7 hPa 0,0 l/m 21,4 km/h (4 Bft) S22.5 185 0 min 112 lux 0 W/m
10.09.2017 20:15 15,4 C 68 % 999,7 hPa 0,0 l/m 21,9 km/h (4 Bft) S45 180 0 min 53 lux 0 W/m
10.09.2017 20:21 15,3 C 69 % 999,7 hPa 0,0 l/m 23,9 km/h (4 Bft) S22.5 185 0 min 53 lux 0 W/m
10.09.2017 20:26 15,2 C 69 % 999,7 hPa 0,0 l/m 18,3 km/h (3 Bft) S22.5 175 0 min 6 lux 0 W/m
10.09.2017 20:31 15,1 C 69 % 999,7 hPa 0,0 l/m 19,8 km/h (3 Bft) S22.5 175 0 min 2 lux 0 W/m
10.09.2017 20:35 15,1 C 69 % 999,7 hPa 0,0 l/m 21,6 km/h (4 Bft) S22.5 180 0 min 0 lux 0 W/m
10.09.2017 20:41 15,0 C 69 % 999,7 hPa 0,0 l/m 24,8 km/h (4 Bft) S22.5 175 0 min 0 lux 0 W/m
10.09.2017 20:46 15,0 C 68 % 999,7 hPa 0,0 l/m 23,0 km/h (4 Bft) S22.5 175 0 min 0 lux 0 W/m
10.09.2017 20:51 15,0 C 68 % 999,7 hPa 0,0 l/m 22,0 km/h (4 Bft) S22.5 185 0 min 0 lux 0 W/m
10.09.2017 20:56 15,0 C 68 % 999,7 hPa 0,0 l/m 26,8 km/h (4 Bft) S22.5 175 0 min 0 lux 0 W/m
10.09.2017 21:00 15,0 C 67 % 999,7 hPa 0,0 l/m 27,3 km/h (5 Bft) S22.5 180 0 min 0 lux 0 W/m
10.09.2017 21:06 15,0 C 67 % 999,7 hPa 0,0 l/m 22,5 km/h (4 Bft) S45 180 0 min 0 lux 0 W/m
10.09.2017 21:10 15,0 C 68 % 999,7 hPa 0,0 l/m 26,9 km/h (4 Bft) S22.5 180 0 min 0 lux 0 W/m
10.09.2017 21:15 15,0 C 68 % 999,7 hPa 0,0 l/m 30,2 km/h (5 Bft) S22.5 180 0 min 0 lux 0 W/m
10.09.2017 21:21 15,0 C 68 % 999,7 hPa 0,0 l/m 24,8 km/h (4 Bft) S45 185 0 min 0 lux 0 W/m
10.09.2017 21:26 15,0 C 68 % 999,7 hPa 0,0 l/m 30,5 km/h (5 Bft) S22.5 185 0 min 0 lux 0 W/m
10.09.2017 21:31 15,0 C 68 % 999,7 hPa 0,0 l/m 26,5 km/h (4 Bft) S22.5 180 0 min 0 lux 0 W/m
10.09.2017 21:35 15,0 C 68 % 999,7 hPa 0,0 l/m 30,4 km/h (5 Bft) S22.5 180 0 min 0 lux 0 W/m
10.09.2017 21:41 15,0 C 68 % 999,7 hPa 0,0 l/m 28,7 km/h (5 Bft) S22.5 185 0 min 0 lux 0 W/m
10.09.2017 21:46 15,0 C 68 % 999,7 hPa 0,0 l/m 25,0 km/h (4 Bft) S22.5 190 0 min 0 lux 0 W/m
10.09.2017 21:51 14,9 C 68 % 998,7 hPa 0,0 l/m 32,5 km/h (5 Bft) S22.5 185 0 min 0 lux 0 W/m
10.09.2017 21:55 14,9 C 68 % 998,7 hPa 0,0 l/m 27,8 km/h (5 Bft) S22.5 180 0 min 0 lux 0 W/m
10.09.2017 22:00 14,8 C 68 % 998,7 hPa 0,0 l/m 32,1 km/h (5 Bft) S45 185 0 min 0 lux 0 W/m
10.09.2017 22:06 14,8 C 68 % 998,7 hPa 0,0 l/m 28,0 km/h (5 Bft) S22.5 175 0 min 0 lux 0 W/m
10.09.2017 22:10 14,7 C 69 % 998,7 hPa 0,0 l/m 30,2 km/h (5 Bft) S67.5 180 0 min 0 lux 0 W/m
10.09.2017 22:16 14,6 C 69 % 998,7 hPa 0,0 l/m 27,6 km/h (5 Bft) S45 180 0 min 0 lux 0 W/m
10.09.2017 22:21 14,6 C 69 % 998,7 hPa 0,0 l/m 28,1 km/h (5 Bft) S45 185 0 min 0 lux 0 W/m
10.09.2017 22:26 14,5 C 69 % 998,7 hPa 0,0 l/m 29,3 km/h (5 Bft) S22.5 180 0 min 0 lux 0 W/m
10.09.2017 22:31 14,6 C 70 % 998,7 hPa 0,0 l/m 27,4 km/h (5 Bft) S22.5 180 0 min 0 lux 0 W/m
10.09.2017 22:35 14,5 C 70 % 998,7 hPa 0,0 l/m 31,0 km/h (5 Bft) S45 180 0 min 0 lux 0 W/m
10.09.2017 22:41 14,5 C 70 % 998,7 hPa 0,0 l/m 31,0 km/h (5 Bft) S45 180 0 min 0 lux 0 W/m
10.09.2017 22:46 14,5 C 70 % 998,7 hPa 0,0 l/m 24,0 km/h (4 Bft) S45 180 0 min 0 lux 0 W/m
10.09.2017 22:51 14,4 C 70 % 998,7 hPa 0,0 l/m 24,5 km/h (4 Bft) S45 180 0 min 0 lux 0 W/m
10.09.2017 22:56 14,4 C 70 % 998,7 hPa 0,0 l/m 25,5 km/h (4 Bft) S22.5 185 0 min 0 lux 0 W/m
10.09.2017 23:00 14,4 C 70 % 997,7 hPa 0,0 l/m 29,8 km/h (5 Bft) S45 180 0 min 0 lux 0 W/m
10.09.2017 23:06 14,3 C 71 % 997,7 hPa 0,0 l/m 22,2 km/h (4 Bft) S-SO45 165 0 min 0 lux 0 W/m
10.09.2017 23:10 14,2 C 71 % 997,7 hPa 0,0 l/m 25,0 km/h (4 Bft) S22.5 170 0 min 0 lux 0 W/m
10.09.2017 23:15 14,2 C 71 % 997,7 hPa 0,0 l/m 28,1 km/h (5 Bft) S22.5 170 0 min 0 lux 0 W/m
10.09.2017 23:21 14,2 C 71 % 997,7 hPa 0,0 l/m 23,1 km/h (4 Bft) S22.5 180 0 min 0 lux 0 W/m
10.09.2017 23:26 14,2 C 71 % 997,7 hPa 0,0 l/m 24,7 km/h (4 Bft) S22.5 175 0 min 0 lux 0 W/m
10.09.2017 23:31 14,2 C 71 % 997,7 hPa 0,0 l/m 19,0 km/h (3 Bft) S22.5 170 0 min 0 lux 0 W/m
10.09.2017 23:35 14,2 C 71 % 997,7 hPa 0,0 l/m 23,9 km/h (4 Bft) S22.5 170 0 min 0 lux 0 W/m
10.09.2017 23:41 14,2 C 71 % 997,7 hPa 0,0 l/m 20,7 km/h (4 Bft) S45 180 0 min 0 lux 0 W/m
10.09.2017 23:46 14,3 C 71 % 997,7 hPa 0,0 l/m 22,6 km/h (4 Bft) S45 170 0 min 0 lux 0 W/m
10.09.2017 23:51 14,3 C 71 % 997,7 hPa 0,0 l/m 32,5 km/h (5 Bft) S22.5 175 0 min 0 lux 0 W/m
10.09.2017 23:56 14,4 C 72 % 997,7 hPa 0,0 l/m 28,0 km/h (5 Bft) S22.5 185 0 min 0 lux 0 W/m
_ Min-Zeit 06:46 16:16 23:00 - 03:45 - - - - -
Minimum _ 10,2 C 60 % 997,7 hPa - 4,4 km/h (1 Bft) - - - - -
_ Max-Zeit 15:21 04:16 07:26 00:00 15:01 - - 08:51 12:51 12:51
Maximum _ 19,0 C 88 % 1002,7 hPa 0,0 l/m 41,2 km/h
SW (6 Bft)
- - 6 min 84,7 klux 579 W/m
Durchschnitt _ 14,4 C 75 % 1001,2 hPa #0,0 l/m 19,4 km/h (3 Bft) S - #5:06 h 16,2 klux 208 W/m